Weather History for Tallahassee, FL

Change the Weather History Date:

Tuesday, October 8, 2013

  Actual Average Record
Temperature  
Mean Temperature 76 °F 72 °F  
Max Temperature 87 °F 84 °F 94 °F (1986)
Min Temperature 64 °F 60 °F 37 °F (1991)
Degree Days  
Heating Degree Days 0    
Month to date heating degree days 0  
Since 1 July heating degree days 0  
Cooling Degree Days 11    
Month to date cooling degree days 113  
Year to date cooling degree days 2618  
Growing Degree Days 26 (Base 50)    
Moisture  
Dew Point 64 °F    
Average Humidity 68    
Maximum Humidity 84    
Minimum Humidity 51    
Precipitation  
Precipitation 0.00 in 0.10 in 4.40 in (1941)
Month to date precipitation 0.81 0.95  
Year to date precipitation 57.27 49.55  
Sea Level Pressure  
Sea Level Pressure 29.93 in    
Wind  
Wind Speed 7 mph (NNE)    
Max Wind Speed 14 mph    
Max Gust Speed 31 mph    
Visibility 10 miles    
Events      
T = Trace of Precipitation, MM = Missing Value Source: NWS Daily Summary

Daily Weather History Graph

Daily Weather History Graph

Search for Another Location

Airport:

Trip Planner

Search our weather history database for the weather conditions in past years. The results will help you decide how hot, cold, wet, or windy it might be!

Date:

Astronomy

Oct. 08, 2013 Rise Set
Actual Time 7:35 AM EDT 7:13 PM EDT
Civil Twilight 7:11 AM EDT 7:38 PM EDT
Nautical Twilight 6:43 AM EDT 8:05 PM EDT
Astronomical Twilight 6:15 AM EDT 8:33 PM EDT
Moon 11:13 AM EDT (10/8) 10:05 PM EDT (10/8)
Length of Visible Light 12h 26m
Length of Day
11h 38m
Waxing Crescent, 16% of the Moon is Illuminated
Oct 8
Waxing Crescent
Oct 11
First Quarter
Oct 18
Full
Oct 26
Last Quarter
Nov 3
New

Hourly Weather History & Observations

Time (EDT) Temp. Heat Index Dew Point Humidity Pressure Visibility Wind Dir Wind Speed Gust Speed Precip Events Conditions
12:16 AM 73.4 °F - 66.2 °F 78% 29.89 in 10.0 mi NNW 6.9 mph - N/A   Mostly Cloudy
12:53 AM 72.0 °F - 66.0 °F 81% 29.88 in 10.0 mi NW 6.9 mph - N/A   Scattered Clouds
1:02 AM 71.6 °F - 66.2 °F 83% 29.88 in 10.0 mi NNW 5.8 mph - N/A   Mostly Cloudy
1:17 AM 71.6 °F - 66.2 °F 83% 29.87 in 10.0 mi NNW 4.6 mph - N/A   Scattered Clouds
1:48 AM 71.6 °F - 66.2 °F 83% 29.87 in 10.0 mi North 6.9 mph - N/A   Mostly Cloudy
1:53 AM 71.1 °F - 64.9 °F 81% 29.87 in 10.0 mi North 6.9 mph - N/A   Scattered Clouds
2:53 AM 71.1 °F - 62.1 °F 73% 29.87 in 10.0 mi North 8.1 mph - N/A   Clear
3:53 AM 69.1 °F - 61.0 °F 75% 29.87 in 10.0 mi NNW 5.8 mph - N/A   Clear
4:53 AM 66.9 °F - 59.0 °F 76% 29.88 in 10.0 mi North 5.8 mph - N/A   Clear
5:53 AM 66.0 °F - 57.9 °F 75% 29.89 in 10.0 mi North 6.9 mph - N/A   Clear
6:53 AM 64.9 °F - 57.0 °F 75% 29.89 in 10.0 mi NNW 6.9 mph - N/A   Clear
7:53 AM 64.0 °F - 57.0 °F 78% 29.91 in 10.0 mi NNW 6.9 mph - N/A   Scattered Clouds
8:53 AM 66.9 °F - 57.0 °F 70% 29.94 in 10.0 mi North 6.9 mph - N/A   Clear
9:53 AM 70.0 °F - 59.0 °F 68% 29.95 in 10.0 mi NNE 8.1 mph - N/A   Clear
10:21 AM 71.6 °F - 62.6 °F 73% 29.96 in 10.0 mi Variable 5.8 mph - N/A   Mostly Cloudy
10:46 AM 73.4 °F - 64.4 °F 73% 29.96 in 10.0 mi Variable 3.5 mph - N/A   Scattered Clouds
10:53 AM 75.0 °F - 64.9 °F 71% 29.96 in 10.0 mi Variable 3.5 mph - N/A   Partly Cloudy
11:53 AM 79.0 °F - 66.0 °F 64% 29.96 in 10.0 mi NE 5.8 mph - N/A   Clear
12:53 PM 82.0 °F 84.5 °F 66.9 °F 60% 29.95 in 10.0 mi NE 6.9 mph - N/A   Partly Cloudy
1:53 PM 84.0 °F 86.5 °F 66.9 °F 56% 29.94 in 10.0 mi Variable 6.9 mph - N/A   Partly Cloudy
2:53 PM 84.9 °F 87.6 °F 66.9 °F 55% 29.92 in 10.0 mi NE 6.9 mph - N/A   Mostly Cloudy
3:53 PM 86.0 °F 88.2 °F 66.0 °F 51% 29.91 in 10.0 mi NNW 6.9 mph - N/A   Scattered Clouds
4:53 PM 86.0 °F 88.8 °F 66.9 °F 53% 29.92 in 10.0 mi NE 4.6 mph - N/A   Mostly Cloudy
5:53 PM 82.9 °F 85.8 °F 68.0 °F 60% 29.93 in 10.0 mi NNE 4.6 mph - N/A   Partly Cloudy
6:53 PM 82.0 °F 84.9 °F 68.0 °F 62% 29.95 in 10.0 mi ENE 4.6 mph - N/A   Mostly Cloudy
7:53 PM 79.0 °F - 68.0 °F 69% 29.96 in 10.0 mi NE 4.6 mph - N/A   Scattered Clouds
8:53 PM 78.1 °F - 68.0 °F 71% 29.98 in 10.0 mi East 8.1 mph - N/A   Mostly Cloudy
9:53 PM 75.9 °F - 66.9 °F 74% 30.01 in 10.0 mi East 12.7 mph - N/A   Mostly Cloudy
10:14 PM 75.2 °F - 66.2 °F 73% 30.02 in 10.0 mi East 8.1 mph - N/A   Overcast
10:53 PM 75.9 °F - 64.9 °F 69% 30.02 in 10.0 mi ENE 9.2 mph - N/A   Overcast
11:00 PM 75.2 °F - 66.2 °F 73% 30.02 in 10.0 mi ENE 6.9 mph - N/A   Overcast
11:53 PM 73.9 °F - 64.0 °F 71% 30.03 in 10.0 mi ENE 11.5 mph - N/A   Overcast